365P/PanSTARRS (2018)

Japanese version
Home page
Updated on September 22, 2018

---------------------------------------------------------------------

* Profile

Designation 365P/2011 WG113
Rediscovery Date October 21, 2017
Magnitude 21.4 mag
Rediscoverer D. C. Fuls (Mount Lemmon)

* Pictures

* Orbital Elements

Epoch 2018 Feb. 11.0 TT = JDT 2458160.5
T 2018 Feb. 10.76026 TT                                 MPCW
q   1.3591128            (2000.0)            P               Q
n   0.17336464     Peri.   66.40055     -0.88412994     -0.43495686
a   3.1853883      Node    87.44221     +0.34163641     -0.85096643
e   0.5733290      Incl.    9.83642     +0.31874568     -0.29439543
P   5.69
From 245 observations 2011 Nov. 24-2018 Mar. 25, mean residual 0".4.

* Finding Charts

* Magnitudes Graph

        m1 = 17.0 + 5 log d + 10.0 log r

---------------------------------------------------------------------

The orbital elements are published on M.P.E.C. 2018-F152.
The charts are made with StellaNavigator Ver.10 (AstroArts).
The magnitudes graphs are made with Comet for Windows.

---------------------------------------------------------------------

Copyright(C) Seiichi Yoshida (comet@aerith.net). All rights reserved.